GFSSGP_925_spd_231.txt.gz
Wind_Speed
12 11 5 1 1 1 1 2 3 4 3 4 4 6 9 11 2 3 16 13 24 21 19 16 16 15 14 15 15 15 15 14 14 14 14 15 15 16 16 15 14 14 13 14 14 15 15 15 15
11 5 2 1 1 2 3 3 8 6 9 11 8 7 8 4 6 13 11 26 24 22 20 17 16 16 16 15 15 15 15 15 14 15 15 15 14 14 14 14 14 13 13 13 14 15 14 14 15
7 2 1 1 1 2 3 1 11 13 10 6 5 6 4 4 12 12 18 27 25 22 20 17 18 17 16 16 16 15 14 16 16 16 15 15 14 14 14 13 12 12 12 12 12 13 13 13 15
0 2 1 2 1 0 6 6 11 10 5 8 12 9 5 14 7 14 29 27 24 22 19 18 17 16 16 16 14 15 14 14 13 14 14 13 12 11 12 11 11 11 11 11 11 12 12 13 14
1 1 2 1 3 5 10 13 3 4 5 6 3 5 4 4 19 32 29 26 25 23 19 18 17 16 15 15 15 14 14 14 14 13 13 12 11 9 9 9 8 9 10 10 11 11 11 14 13
0 1 3 3 4 9 7 6 10 9 10 10 11 8 3 22 28 24 26 26 24 23 19 19 17 15 15 13 14 15 13 13 11 10 9 9 9 8 8 7 6 7 9 11 11 12 13 13 12
2 2 2 4 5 3 4 2 7 9 9 7 8 6 5 13 25 24 25 24 23 21 21 19 17 15 14 13 13 13 12 11 11 10 9 8 6 6 6 6 6 8 8 9 12 11 12 11 11
2 2 3 2 3 3 5 2 6 7 6 11 11 7 10 13 26 24 23 23 22 21 19 17 17 16 14 13 12 12 11 10 9 8 7 7 6 5 5 7 8 7 9 9 12 13 13 14 14
6 1 1 4 1 3 9 4 3 6 12 4 2 9 17 26 27 23 21 21 21 19 18 17 17 16 14 13 11 11 8 8 8 8 8 6 6 7 6 8 10 11 11 12 13 15 17 17 14
3 2 5 7 2 2 4 7 4 3 11 10 13 17 29 27 24 20 17 17 21 19 19 17 16 16 14 13 12 9 9 8 8 8 9 9 8 8 8 11 12 12 12 13 15 17 18 17 14
5 5 4 5 6 3 7 12 6 11 1 15 19 22 23 24 20 19 17 25 26 21 19 18 17 16 14 12 12 12 10 7 6 8 10 11 11 12 10 9 11 14 15 14 17 20 19 15 11
3 4 5 6 7 4 3 3 6 7 5 8 16 23 21 19 17 19 17 17 21 22 20 19 17 15 14 10 11 11 11 8 8 8 10 12 12 12 10 8 11 11 12 14 15 16 16 14 11
3 6 5 11 12 11 9 7 6 11 14 9 18 20 19 16 19 21 26 24 23 23 20 20 17 14 13 10 10 12 11 8 6 7 10 12 12 11 7 11 11 10 12 12 13 13 12 11 10
5 12 10 9 11 8 13 7 12 5 7 11 18 18 17 17 20 19 21 23 26 24 21 20 17 13 10 12 10 11 9 7 9 10 10 10 8 9 10 9 11 11 11 12 12 11 11 10 10
14 10 6 3 10 5 10 5 10 10 5 12 14 14 15 14 18 23 26 28 29 26 23 20 18 14 12 12 10 11 9 9 10 10 9 9 7 7 8 9 8 9 11 10 10 10 9 8 8
4 5 3 5 4 4 4 4 9 12 11 15 16 13 13 10 20 25 27 30 31 26 26 23 20 16 14 12 11 9 10 9 10 10 7 8 7 9 10 10 9 9 8 7 7 7 8 9 9
5 4 3 3 5 4 2 2 7 10 9 9 14 15 12 11 13 22 29 32 33 30 28 26 23 20 17 13 9 7 12 14 13 11 8 8 11 11 11 12 14 11 7 5 7 9 9 10 10
4 3 4 5 4 3 4 3 4 10 11 13 9 13 12 12 14 23 30 32 33 34 30 28 25 21 19 16 9 7 10 12 14 13 10 10 12 14 13 11 12 11 9 7 7 8 9 11 12
3 1 6 2 5 3 4 6 10 10 5 6 7 11 14 12 17 24 30 32 33 36 33 30 27 22 20 18 12 8 11 14 14 13 12 14 11 11 15 15 13 11 12 10 9 11 8 6 6
3 3 4 1 5 3 6 7 6 10 10 8 9 10 14 9 13 19 26 28 31 36 34 30 28 26 21 21 15 13 14 18 15 14 13 13 10 12 11 11 10 11 13 11 10 9 6 7 7
3 4 3 2 3 2 4 4 6 8 7 13 13 12 13 15 15 17 23 28 29 32 36 32 29 27 26 22 17 14 15 20 14 13 13 12 8 14 13 11 9 10 12 12 8 8 7 5 5
5 7 8 6 5 4 2 3 5 7 14 14 16 9 13 14 17 17 23 27 30 34 38 35 30 28 27 22 18 14 19 19 18 18 14 12 10 12 9 7 7 4 9 12 11 8 8 9 8
10 7 6 6 5 3 1 3 6 3 8 10 13 13 12 14 18 20 24 34 35 32 37 38 34 29 29 24 20 14 19 26 24 18 15 14 13 11 9 8 9 8 7 12 12 10 9 8 7
3 2 2 4 3 2 6 5 6 6 13 16 14 17 17 14 19 19 30 33 32 32 34 39 38 35 31 28 23 19 17 27 23 19 19 17 14 12 12 10 11 9 8 10 12 12 10 9 8
5 5 2 2 0 6 6 3 13 8 6 13 17 14 16 16 17 19 19 26 30 31 32 36 40 39 34 31 26 21 18 24 25 23 22 21 17 14 14 14 13 11 9 11 11 13 13 10 8
6 9 6 6 4 4 6 6 8 8 15 13 16 15 12 16 16 21 22 31 34 35 35 35 38 38 38 34 30 25 18 19 27 26 24 20 22 22 15 17 15 12 11 10 10 11 12 12 11
4 5 9 5 1 2 5 7 9 5 9 11 15 14 17 17 18 22 23 32 34 35 36 38 37 38 38 38 34 31 24 18 26 29 27 24 23 24 19 19 18 15 13 12 11 11 12 11 10
7 6 4 2 6 5 5 5 5 5 2 3 8 15 13 13 16 15 17 29 30 32 36 36 38 39 40 39 38 35 31 24 21 22 26 27 24 22 22 21 20 19 17 15 14 13 12 13 12
3 3 3 5 5 6 2 7 7 8 8 7 8 8 6 8 12 13 15 24 27 28 30 29 31 34 35 40 41 38 37 30 23 22 21 25 24 22 22 23 26 23 21 20 19 17 15 17 16
8 9 8 5 5 2 4 7 5 3 4 11 8 9 6 8 9 8 8 21 23 27 33 36 29 30 33 38 39 40 38 36 30 27 24 24 27 24 23 20 23 28 25 22 23 22 20 19 20

GFSSGP_925_spd_234.txt.gz
Wind_Speed
10 9 6 3 1 1 1 3 3 6 3 2 5 2 7 6 2 3 12 12 20 19 17 16 15 15 14 13 14 14 12 13 13 13 13 15 15 15 14 13 13 13 12 11 13 14 13 14 14
12 6 1 1 1 3 3 3 8 3 6 12 6 5 5 4 4 11 10 20 21 19 17 16 15 15 15 15 14 14 14 13 14 14 15 15 14 14 14 14 13 13 13 12 12 12 12 11 12
7 2 1 1 1 1 2 3 12 11 6 4 5 5 3 4 11 12 13 25 21 19 16 15 16 15 14 14 13 13 14 14 15 15 15 14 13 13 12 13 13 12 11 11 11 11 11 11 10
1 1 0 0 2 1 4 6 11 10 6 7 10 7 4 9 11 9 27 23 21 20 17 16 16 15 14 14 13 12 14 14 13 14 13 12 12 12 11 11 11 11 10 10 10 11 10 10 10
1 0 1 1 2 2 6 9 3 4 5 5 3 4 5 3 13 26 25 22 22 20 18 15 15 14 14 12 12 12 12 12 13 13 12 11 9 10 11 10 9 9 8 9 9 10 11 11 10
2 2 2 3 6 6 6 7 3 5 6 8 10 7 2 15 26 22 23 21 20 19 18 15 14 13 13 13 12 12 12 11 11 11 10 10 9 8 8 8 9 8 7 7 8 9 10 11 11
1 1 1 3 6 4 3 3 4 4 8 6 8 6 4 7 19 23 21 21 19 17 18 16 14 12 11 12 11 11 10 10 9 8 8 8 8 7 7 6 7 8 8 9 8 9 10 10 8
2 1 3 4 3 4 2 2 5 5 4 5 11 6 9 8 20 21 20 19 17 17 16 15 15 13 12 12 11 10 9 8 8 7 6 6 6 6 8 8 8 9 10 10 11 9 10 9 8
1 4 3 3 2 5 4 3 1 4 7 1 3 6 12 23 23 20 17 16 17 16 15 14 15 14 13 12 11 11 9 7 6 5 5 4 4 7 8 8 8 11 11 12 13 11 10 9 8
2 3 5 3 4 3 13 5 1 5 4 8 13 16 24 23 23 19 15 14 17 17 16 15 14 14 13 13 12 11 10 7 6 6 6 5 5 7 9 9 10 10 11 12 13 11 10 11 8
4 4 4 4 5 5 7 11 6 10 5 1 16 15 17 19 16 15 15 18 24 20 17 15 14 13 13 11 11 10 9 8 6 6 6 6 8 11 11 12 14 13 13 14 15 14 13 10 6
4 5 5 7 6 6 7 5 5 7 3 1 12 17 15 13 13 15 16 19 19 19 18 16 15 13 11 10 9 9 8 6 7 9 8 9 10 10 10 10 13 12 13 16 15 14 11 8 6
2 4 4 4 8 6 11 8 8 2 4 11 14 15 13 12 14 16 20 19 17 19 18 18 16 14 12 9 9 10 8 6 5 7 11 9 11 9 5 10 11 12 13 14 14 12 10 8 5
2 8 7 5 7 5 7 3 1 2 2 15 16 14 13 12 15 13 15 19 19 20 20 18 17 14 11 9 10 9 7 5 5 9 9 11 9 8 6 11 11 12 11 10 11 10 8 6 6
7 6 5 3 2 4 10 2 5 10 5 14 16 13 13 13 15 19 25 23 23 23 21 19 16 15 11 10 10 10 7 5 7 9 7 8 8 8 9 9 11 11 11 11 9 9 8 8 9
3 4 3 3 3 4 3 4 10 10 11 14 15 14 13 10 19 22 27 27 25 24 22 20 17 15 13 12 9 9 8 8 7 7 9 9 8 8 10 10 11 10 9 8 8 8 7 6 7
5 2 2 2 5 6 4 4 5 8 8 8 16 15 14 12 14 21 29 29 28 25 22 21 19 17 14 12 9 8 8 10 9 7 5 6 7 8 11 10 10 9 7 6 6 6 6 5 5
4 3 1 4 4 4 7 5 5 12 10 10 12 13 14 14 16 22 29 29 29 28 24 22 20 18 15 14 11 8 11 11 10 8 5 8 8 10 11 12 12 10 6 5 6 7 8 5 7
4 4 3 2 4 4 7 3 10 13 10 10 7 14 13 13 18 24 27 29 29 28 28 27 24 21 19 18 13 10 12 13 13 10 8 12 12 10 9 11 13 10 8 5 4 6 5 4 5
3 1 1 1 4 3 3 6 4 11 14 12 12 9 15 11 9 17 23 27 30 32 31 30 28 24 22 19 15 9 11 14 13 12 11 13 13 11 10 10 9 9 9 9 9 7 5 3 5
2 3 2 2 4 2 5 5 5 6 9 9 9 8 7 13 13 12 18 26 29 31 34 33 31 27 23 20 15 10 10 14 13 13 12 12 10 12 12 12 9 10 12 11 10 8 7 4 6
3 7 3 7 3 2 1 4 5 8 15 11 14 14 14 13 15 15 21 23 27 34 37 34 30 28 25 21 17 14 15 15 16 15 14 13 10 14 12 10 8 7 12 13 10 9 7 6 6
6 7 5 4 3 2 2 2 6 9 11 19 19 17 17 16 17 18 23 30 34 30 37 37 30 28 26 24 20 16 18 18 19 16 14 12 11 15 12 10 10 9 8 13 13 10 8 8 7
3 4 7 5 3 2 6 5 5 6 14 13 14 15 17 16 18 18 30 31 30 31 32 36 32 30 28 28 23 19 15 16 21 17 15 15 13 13 11 9 10 10 6 7 11 10 8 7 7
5 6 2 2 1 5 3 2 10 4 6 10 19 18 18 17 16 16 17 25 28 29 33 34 36 33 30 30 27 23 17 15 22 20 18 18 16 14 13 10 7 8 6 6 7 8 10 9 7
7 9 5 6 4 4 3 6 6 9 8 8 12 20 17 18 17 19 21 28 30 31 33 35 35 36 33 32 30 26 23 18 20 21 20 18 20 16 12 10 11 9 8 7 7 8 8 9 10
4 4 7 6 2 1 4 7 9 8 6 7 11 16 20 19 19 20 22 29 32 33 35 36 36 37 37 35 31 29 26 21 18 22 22 20 18 17 14 12 12 11 10 9 9 9 8 9 10
9 8 4 2 7 5 4 4 6 9 8 3 8 15 16 17 17 16 16 26 28 30 32 32 37 39 41 39 35 33 31 25 19 18 23 23 22 18 17 16 15 14 14 12 12 11 10 10 9
2 3 4 5 4 6 1 6 7 8 5 5 7 8 13 16 17 17 17 26 27 28 31 31 30 32 33 38 37 35 34 30 24 21 22 24 26 23 19 18 19 19 19 17 16 15 13 13 13
7 9 7 5 4 1 4 7 4 8 5 6 6 8 9 13 16 13 16 25 27 27 30 34 32 34 37 38 36 38 35 33 29 26 24 22 22 23 21 20 20 21 22 23 20 19 19 18 18

GFSSGP_925_spd_237.txt.gz
Wind_Speed
13 12 5 2 2 1 4 4 6 14 10 3 13 3 4 8 2 4 10 8 16 15 14 13 14 14 11 12 13 12 11 11 12 12 13 13 13 14 14 14 13 13 13 13 13 14 15 16 16
11 8 1 1 1 4 4 3 14 9 9 17 11 9 5 5 4 10 10 14 16 16 14 13 14 13 12 13 12 11 11 11 13 13 14 13 13 13 14 13 13 13 12 12 13 13 13 14 13
6 1 1 1 1 4 5 6 11 14 15 10 6 8 3 4 10 15 11 17 16 14 13 12 13 12 12 12 12 11 11 12 14 12 13 12 14 13 13 13 13 12 12 12 12 12 12 12 12
3 2 1 1 9 5 6 14 14 14 10 5 13 9 5 4 12 8 20 17 15 14 13 12 13 12 12 11 12 13 13 13 13 12 12 12 12 12 12 12 11 12 12 11 11 11 11 11 10
1 1 1 3 9 10 13 9 4 4 5 7 2 7 10 3 9 21 18 16 16 13 13 12 13 12 13 12 11 12 13 12 11 11 10 11 11 11 10 10 11 12 12 12 11 11 11 12 11
2 0 2 4 13 11 7 7 5 6 7 9 11 12 4 9 18 18 17 15 14 14 12 12 12 12 11 11 11 12 11 12 11 11 9 10 10 10 9 9 9 11 12 12 11 11 12 14 13
0 1 2 8 12 7 4 3 5 7 9 7 10 8 5 12 16 17 16 14 13 13 12 12 11 11 10 11 11 10 10 10 9 9 8 7 7 7 7 8 8 9 11 11 12 11 11 12 10
1 1 2 4 4 5 4 4 7 5 8 11 8 6 8 14 17 17 15 14 12 12 12 12 11 11 10 10 10 10 10 9 8 8 7 7 6 5 5 7 7 8 10 11 11 11 10 9 9
1 1 3 2 4 7 7 5 5 7 10 3 3 11 15 22 19 17 16 13 11 11 11 12 11 11 10 9 8 8 8 8 7 7 7 7 7 7 7 7 9 9 10 12 11 11 9 8 8
1 2 2 2 8 9 4 4 9 6 5 6 13 17 24 21 20 18 16 15 13 12 11 11 12 11 10 8 8 7 6 5 6 7 8 8 9 8 8 9 10 10 10 12 10 9 8 8 6
2 2 5 4 10 12 10 5 2 11 4 6 20 20 20 21 17 16 15 15 16 14 12 11 11 11 9 8 7 5 4 5 6 6 7 9 10 10 10 10 11 11 12 11 10 8 7 5 5
2 5 1 7 7 6 5 9 7 4 3 8 18 20 18 17 16 16 16 15 15 15 13 12 11 11 10 7 6 5 3 3 4 6 8 10 9 11 12 10 11 12 11 11 9 8 7 5 3
5 2 3 7 8 8 6 6 5 6 6 16 17 18 17 15 15 13 14 14 14 13 14 12 13 12 12 10 8 7 4 4 4 5 8 8 9 10 10 12 10 11 11 10 9 8 6 4 2
4 7 8 7 7 7 7 4 2 3 9 17 19 18 16 15 17 13 14 15 15 13 14 13 12 13 11 10 9 8 5 3 3 6 8 8 8 6 10 11 10 12 10 10 8 7 4 2 0
10 8 6 6 5 3 6 4 5 9 12 17 18 16 16 15 15 17 16 16 17 16 15 14 13 13 11 9 9 7 6 3 4 8 8 8 5 6 7 8 9 10 11 9 7 5 3 2 4
3 3 3 5 5 3 3 1 8 13 15 15 17 15 15 15 18 16 15 15 16 17 17 15 12 12 11 10 9 6 5 5 4 6 6 6 6 7 8 8 9 9 8 7 6 4 4 4 4
2 3 4 3 8 4 9 1 5 14 13 13 14 16 15 15 16 16 16 17 17 18 17 17 15 12 11 11 10 8 6 4 5 5 6 6 6 8 10 9 11 11 8 7 6 4 4 3 3
5 4 3 3 7 9 8 9 3 12 15 14 15 16 16 16 18 20 19 19 18 18 18 17 16 14 13 12 10 8 7 7 5 3 3 5 7 8 10 10 11 10 8 6 6 7 6 5 4
6 6 2 1 3 8 11 10 11 13 15 16 16 16 18 17 21 19 20 21 19 19 18 19 17 17 14 11 8 7 8 7 5 4 4 6 7 9 11 11 11 9 6 5 5 6 5 4 4
7 5 3 2 4 6 4 11 10 15 18 17 17 18 17 18 17 20 20 21 21 22 22 19 20 20 18 14 10 7 8 7 6 6 4 8 10 9 8 10 10 9 8 6 6 5 4 2 2
8 9 5 1 5 5 4 6 9 11 15 15 17 17 18 19 19 18 22 24 23 23 23 23 22 24 21 18 14 8 10 10 8 8 7 9 9 9 9 9 8 9 9 8 9 8 6 2 4
14 9 5 6 4 3 3 3 6 13 16 19 20 19 20 20 20 18 24 25 25 26 24 25 26 24 24 23 16 12 10 13 11 10 9 10 9 10 11 10 9 8 10 12 10 9 8 5 4
11 9 7 5 3 3 4 4 1 9 16 21 24 22 22 23 21 21 24 28 29 26 25 25 28 28 23 25 21 16 11 10 10 11 11 12 10 10 12 12 10 8 7 11 11 10 8 8 6
9 7 6 4 2 9 4 7 5 7 15 20 22 23 23 22 22 22 28 29 29 28 26 24 26 32 31 27 26 23 17 14 12 12 12 10 9 10 13 11 10 8 6 7 11 11 9 8 6
10 12 8 7 6 10 2 5 12 7 9 15 24 26 25 23 21 21 20 26 27 28 28 26 26 27 30 31 28 25 21 18 17 18 15 13 13 13 14 12 10 10 8 6 7 8 10 9 7
16 16 9 12 10 11 2 7 3 3 7 8 15 22 23 24 23 22 24 29 29 30 30 28 27 27 26 30 30 29 24 18 16 18 15 15 15 14 12 13 11 9 8 7 5 6 8 8 9
9 11 11 6 1 6 4 5 11 8 4 8 12 14 21 23 24 24 25 29 29 31 31 32 29 29 27 28 33 31 27 23 17 18 20 15 15 14 15 14 11 11 9 8 7 5 6 7 7
10 12 10 7 15 15 9 6 8 7 4 3 8 16 19 23 24 22 20 27 28 30 31 33 33 33 32 29 30 33 30 26 23 19 19 21 18 17 14 14 12 11 10 9 9 7 7 7 6
8 9 7 10 8 14 11 9 5 9 7 10 9 12 17 20 22 21 21 29 29 29 30 31 31 30 29 29 29 31 29 26 25 21 18 20 20 18 17 15 15 14 12 11 12 11 9 9 8
18 19 18 11 12 8 11 16 3 5 6 5 4 5 11 14 19 20 20 23 26 28 29 32 32 31 33 33 33 32 28 30 25 26 22 18 20 18 20 18 17 16 15 14 14 14 12 11 11

GFSSGP_925_spd_240.txt.gz
Wind_Speed
10 8 4 4 3 5 11 8 13 13 11 6 11 1 11 13 7 6 16 12 16 14 13 11 12 12 11 13 12 11 10 10 10 11 12 13 12 13 13 13 13 15 15 15 17 17 16 14 16
10 5 3 3 5 9 8 11 14 9 10 15 10 8 5 7 9 16 14 16 15 14 13 11 13 10 12 13 12 11 10 11 11 12 12 13 14 13 13 13 13 13 14 16 15 15 15 15 15
8 4 3 3 3 8 11 12 10 11 14 10 5 9 5 5 14 9 20 17 15 14 12 12 12 12 12 12 11 11 12 13 14 13 14 13 12 13 13 13 13 14 14 14 16 14 14 13 13
6 5 4 6 12 9 14 13 11 11 10 3 9 10 8 14 8 14 20 18 16 14 13 12 13 13 12 12 11 12 13 14 13 14 13 13 13 12 12 13 14 14 14 14 14 13 13 12 11
4 3 2 5 15 17 14 11 12 8 6 8 2 9 13 6 14 21 19 17 16 14 13 11 13 13 12 12 13 12 13 13 13 12 12 11 11 11 12 12 14 14 13 13 14 14 14 12 12
4 3 4 10 17 12 10 7 5 6 8 9 16 17 8 11 20 18 17 17 15 15 14 12 12 12 13 12 13 12 12 13 12 12 11 11 10 11 11 11 13 13 13 13 14 15 15 15 14
4 1 4 12 13 8 8 2 5 8 8 8 13 12 8 15 17 18 17 15 15 14 14 13 12 11 11 12 11 11 12 12 12 11 10 10 9 9 9 10 11 11 12 13 13 14 13 12 12
3 3 6 9 10 8 5 8 6 8 8 10 13 7 13 19 19 18 17 16 14 13 14 13 12 11 11 11 11 9 9 9 9 9 9 9 8 8 8 10 9 10 11 11 12 11 11 12 11
1 3 5 5 7 8 11 9 7 9 12 4 4 13 23 24 21 19 17 16 15 12 13 13 12 11 11 11 9 9 8 8 9 8 8 8 7 8 8 8 9 9 10 10 10 10 11 12 11
1 0 5 2 5 11 8 7 13 10 10 7 11 20 25 23 21 20 18 17 16 14 13 13 13 12 11 10 9 8 7 7 7 7 7 8 7 8 10 10 11 10 11 10 9 9 12 8 8
1 3 5 6 6 12 10 7 7 9 3 10 17 22 21 22 20 18 16 17 17 15 13 13 12 12 11 10 10 8 8 7 6 6 7 9 10 10 11 11 11 10 11 9 8 8 8 8 9
6 4 2 3 6 5 4 6 6 1 6 10 19 21 20 17 17 18 16 16 16 16 13 13 12 11 9 9 9 8 7 6 6 6 7 9 10 10 11 13 13 12 10 10 8 8 7 7 8
7 7 5 10 7 7 7 7 7 7 9 16 18 19 18 15 16 16 15 15 15 16 14 13 12 9 8 8 7 7 7 7 7 7 7 7 9 10 12 13 13 12 11 10 9 8 6 6 6
4 6 9 9 9 8 7 7 5 7 14 16 17 18 16 14 16 16 16 16 15 15 15 14 12 10 8 7 7 6 6 5 5 7 7 7 7 9 11 12 13 12 11 10 9 7 5 4 4
9 9 8 7 9 5 6 7 6 12 16 15 18 17 16 14 15 15 16 16 16 15 16 14 13 11 9 8 7 6 5 6 7 7 8 8 7 8 11 12 12 11 10 9 7 5 3 3 3
6 8 10 11 9 6 7 7 9 14 17 17 18 15 15 15 15 14 15 16 16 16 16 15 13 12 11 9 8 6 6 6 7 7 7 6 6 8 8 9 10 10 9 7 5 4 2 2 2
9 6 5 6 9 5 9 3 11 14 16 18 17 17 15 15 15 15 15 17 18 17 17 16 13 13 11 10 8 7 7 6 7 7 7 7 7 8 7 8 8 8 7 6 4 3 2 3 1
11 9 6 3 8 8 8 7 10 14 16 17 18 17 16 16 16 18 17 16 18 19 18 15 14 12 10 10 8 9 9 8 7 7 7 7 7 8 8 8 8 7 7 5 4 2 2 1 2
6 9 7 5 2 7 8 7 9 13 15 17 17 18 18 17 19 20 21 19 19 19 18 17 16 15 13 11 9 10 12 10 8 7 6 6 7 8 8 8 8 6 4 3 5 3 2 2 2
10 10 9 5 5 6 3 8 10 14 17 18 19 19 19 18 18 21 22 22 21 21 19 19 18 17 16 12 10 7 11 12 8 7 6 6 8 8 7 7 8 7 5 3 3 3 3 2 1
17 14 9 7 5 10 7 14 10 12 15 16 17 18 18 19 20 19 22 24 24 24 22 20 20 18 17 14 11 10 9 10 10 8 8 9 8 7 6 6 6 6 6 6 5 4 4 3 1
19 16 9 8 8 6 2 1 13 13 16 19 20 19 20 21 20 19 23 24 25 25 24 22 20 20 19 17 15 12 13 14 12 11 8 8 7 6 6 7 6 5 6 7 7 6 4 4 5
18 9 12 12 12 11 12 7 5 14 14 19 22 23 22 22 22 22 26 27 26 25 26 25 22 21 20 19 16 15 13 13 12 11 9 8 8 6 8 8 6 5 4 7 7 6 5 5 6
19 5 9 11 13 13 15 7 7 11 14 18 20 23 22 22 22 23 28 28 28 27 26 26 25 24 22 20 20 18 15 13 14 12 10 10 9 9 9 9 7 6 5 5 7 7 7 7 6
23 17 10 12 12 13 6 7 13 1 5 9 21 24 24 22 22 22 23 28 28 29 28 26 25 25 24 22 22 22 19 16 15 15 13 10 9 10 11 10 9 8 7 5 5 7 8 8 7
23 23 15 18 13 14 13 7 6 3 2 8 13 20 23 23 22 23 25 30 31 30 29 28 27 26 26 26 24 23 21 19 17 16 15 14 10 9 9 10 10 9 9 7 6 6 7 7 7
23 24 23 22 17 13 12 14 9 10 5 8 12 15 21 24 24 24 26 31 32 31 31 31 30 28 28 28 26 25 23 21 19 15 17 15 12 11 11 11 11 10 10 10 8 7 7 7 7
21 18 20 16 23 19 17 16 8 12 9 6 8 13 18 23 24 23 21 29 32 33 33 32 32 32 30 28 28 28 26 24 21 17 16 17 14 13 12 14 13 11 12 11 10 8 8 8 7
15 15 18 18 19 16 16 16 12 14 2 4 4 8 15 19 22 22 20 29 31 30 31 31 32 32 32 30 29 28 29 26 22 20 18 18 17 15 15 14 14 14 14 13 12 10 8 9 9
25 24 22 16 23 18 15 14 8 8 1 5 5 3 8 18 21 21 21 26 26 28 29 30 31 31 31 31 29 27 27 29 27 24 22 19 16 17 16 15 15 15 16 15 14 13 12 12 12

GFSSGP_925_spd_243.txt.gz
Wind_Speed
8 6 8 6 4 5 13 13 17 13 12 16 6 10 18 16 15 10 18 18 20 19 14 13 13 14 12 11 10 10 11 11 11 11 12 12 14 13 13 14 16 16 17 17 17 17 17 18 18
7 3 5 5 4 7 9 15 12 13 15 12 12 9 19 19 18 19 19 18 21 19 18 14 13 13 13 12 11 9 10 11 11 12 13 12 13 14 14 13 15 16 16 16 16 16 15 16 17
7 5 3 3 4 10 10 14 12 15 12 9 13 13 9 14 12 19 23 20 17 18 18 14 13 14 14 13 12 10 12 12 13 12 13 14 14 14 14 14 16 15 15 16 15 14 14 14 12
2 5 5 1 12 15 16 13 13 12 7 11 14 15 20 14 18 23 21 19 18 19 18 13 14 14 13 12 13 13 14 13 13 13 13 13 14 14 14 14 14 15 15 15 14 13 13 12 10
11 6 3 5 19 15 14 13 7 8 8 9 13 21 14 17 24 21 20 19 18 22 16 14 14 14 14 13 14 14 13 13 12 12 11 12 13 13 14 13 14 14 14 15 14 13 13 14 15
4 5 3 9 14 13 11 10 5 7 10 12 20 19 16 21 20 20 18 19 19 19 17 15 14 15 15 14 13 13 13 12 11 11 12 12 13 13 13 13 13 13 14 14 14 15 14 14 14
4 3 5 11 12 8 10 4 5 9 9 16 14 18 14 19 19 19 17 17 18 19 18 15 13 13 14 14 13 13 12 12 11 10 10 11 11 11 11 12 12 13 13 13 13 13 13 12 13
5 4 3 11 7 10 3 7 7 6 13 11 15 9 19 21 21 19 18 16 18 16 17 17 13 13 13 12 12 13 11 10 9 9 9 9 9 10 10 12 12 12 12 12 11 10 11 12 13
6 3 2 9 3 9 9 11 9 11 12 8 3 20 24 25 22 20 20 16 17 17 16 15 14 14 14 12 11 11 9 8 8 8 8 9 9 10 9 11 11 12 11 11 10 11 12 15 19
4 2 6 1 2 11 7 10 14 11 11 10 16 24 27 24 23 20 20 19 16 17 16 18 15 14 13 15 11 10 10 6 6 7 7 5 8 11 13 10 11 11 10 10 10 11 9 11 8
3 1 7 3 7 8 6 10 4 10 9 14 17 22 22 23 21 19 19 18 18 17 16 16 17 14 13 15 13 13 8 9 8 8 5 10 10 11 11 10 10 9 11 9 9 5 4 2 5
8 3 3 9 11 8 6 3 3 9 8 13 18 21 20 19 18 18 17 19 18 17 15 15 15 13 11 13 10 14 11 9 12 8 8 11 11 13 11 13 13 11 11 10 8 7 9 8 8
6 10 10 7 6 10 8 4 7 8 11 16 19 19 18 17 18 17 17 16 19 17 15 15 14 9 10 8 9 9 9 9 11 8 8 7 14 14 15 12 13 10 11 9 6 8 5 5 6
15 11 10 10 9 8 9 6 7 8 15 17 17 18 17 16 18 18 17 17 18 18 17 16 14 12 12 6 9 8 8 9 8 9 10 11 11 11 13 11 11 11 10 9 8 6 4 1 6
7 10 9 9 10 11 9 10 8 13 15 16 16 16 15 15 17 17 17 16 17 18 17 17 14 13 12 11 9 8 8 9 9 12 10 8 11 9 13 12 11 10 9 7 6 5 4 4 5
13 11 12 12 12 8 9 6 14 15 16 17 18 16 14 15 16 16 17 16 17 17 17 16 15 14 13 12 10 7 7 10 9 10 9 8 10 10 11 12 11 11 10 9 8 6 3 3 3
11 6 8 8 8 10 11 9 15 14 16 18 19 17 16 15 16 18 18 18 18 17 17 16 15 16 13 11 10 7 7 10 11 11 11 10 10 9 7 11 11 9 8 5 6 3 1 4 1
18 16 14 7 12 7 9 6 15 16 18 19 19 18 17 16 16 19 19 19 19 19 18 17 16 16 14 12 8 11 9 10 11 10 15 11 10 9 8 8 8 8 7 7 3 4 1 5 4
9 14 10 7 6 9 12 8 14 15 16 17 16 19 18 18 18 21 20 20 21 21 20 19 17 17 16 15 13 12 12 11 10 12 12 10 10 9 7 10 8 7 5 9 5 4 3 4 2
6 15 9 7 11 10 9 11 14 18 15 18 17 21 20 19 19 21 22 21 23 23 22 20 19 18 16 15 11 9 11 13 15 12 11 10 10 10 7 8 10 7 9 4 4 3 4 2 2
20 19 12 7 7 13 12 13 14 17 17 24 25 20 20 21 21 20 23 24 24 25 23 22 20 20 18 14 11 7 3 11 10 10 10 10 11 10 7 8 4 5 3 10 6 4 4 8 2
21 18 16 5 9 11 12 7 9 16 18 20 23 20 20 21 21 21 24 25 25 26 24 22 21 21 19 16 14 13 14 12 15 13 16 13 12 11 9 9 7 6 7 2 5 5 3 3 8
19 16 20 16 13 16 19 7 9 17 17 20 20 25 23 24 23 24 25 28 27 26 26 24 23 22 21 19 13 17 18 14 13 12 15 11 12 10 10 9 8 6 6 7 6 4 5 5 5
21 21 13 15 15 15 18 13 11 17 17 19 21 21 23 23 24 23 29 29 28 27 26 25 24 22 21 20 15 18 17 11 15 11 11 14 14 12 10 11 9 7 6 5 7 8 7 7 5
26 20 14 13 13 14 19 14 11 7 5 13 21 22 23 24 24 23 24 29 31 31 29 27 26 24 24 22 21 19 16 14 12 13 13 13 14 14 18 13 10 9 8 6 6 8 8 8 7
26 24 17 20 14 16 18 9 8 5 3 13 16 22 23 22 23 26 25 32 34 32 32 30 29 27 25 24 23 22 19 19 15 15 15 13 11 10 15 12 11 10 8 7 6 7 8 9 8
25 25 25 24 18 13 15 18 10 8 9 9 11 20 24 24 22 24 27 33 33 34 34 34 32 30 29 28 25 24 22 21 21 20 19 14 9 9 9 10 12 11 10 9 8 8 7 7 9
28 21 21 18 23 21 17 12 13 19 12 11 14 14 18 22 22 22 23 33 35 35 35 33 32 31 30 30 28 26 25 24 20 18 17 19 13 12 8 11 12 12 12 12 11 11 12 10 10
21 23 18 21 20 17 16 13 9 5 14 11 8 11 16 19 22 21 21 32 35 35 35 34 33 32 30 30 29 27 28 26 25 20 18 19 16 14 13 12 13 13 12 13 13 13 7 9 10
23 24 25 15 24 17 17 12 9 19 14 7 6 6 7 18 21 21 20 27 31 32 33 33 32 31 29 28 27 28 27 27 27 25 22 21 20 18 16 16 16 15 15 16 16 15 15 15 13

GFSSGP_925_spd_249.txt.gz
Wind_Speed
8 8 4 2 2 2 6 2 14 18 17 20 18 15 15 5 6 10 27 29 30 25 22 19 18 18 17 17 18 16 19 17 18 19 21 22 23 24 23 22 20 19 19 19 19 20 18 19 20
6 5 4 3 2 3 1 11 14 18 22 23 23 22 24 22 18 20 22 31 26 26 22 21 18 18 16 17 17 17 17 18 18 18 20 20 22 23 22 21 20 20 18 17 16 17 18 17 17
6 3 2 3 4 2 2 17 16 12 18 23 16 14 10 20 11 14 34 30 29 24 21 20 19 17 15 17 16 18 19 19 19 18 19 19 21 21 21 19 18 18 16 16 15 12 14 16 17
2 7 0 3 4 6 14 11 15 18 20 23 17 13 14 25 16 29 33 33 28 22 21 20 18 16 15 16 17 19 19 19 20 20 18 19 20 19 19 18 18 17 16 14 12 11 13 15 16
7 1 4 2 1 12 12 16 17 21 18 20 23 20 16 25 36 37 35 30 26 24 22 21 19 17 16 17 19 18 20 19 19 18 18 18 18 18 17 18 17 16 16 14 14 15 15 17 15
2 2 1 4 14 10 8 10 20 21 21 24 23 21 13 29 36 35 36 31 26 26 21 19 18 18 19 19 18 19 18 18 17 17 17 17 18 17 16 16 16 16 15 15 16 16 16 17 17
2 2 5 5 10 7 6 9 19 21 21 17 19 21 10 11 33 33 33 34 26 25 20 20 20 19 18 18 18 18 17 17 17 17 17 17 17 17 16 16 15 14 15 15 14 14 15 17 16
5 3 10 12 3 7 9 13 20 22 22 23 22 11 15 15 44 34 34 32 29 24 20 20 20 19 18 17 16 17 17 17 17 16 16 15 15 15 15 16 14 14 14 11 10 11 12 13 13
12 4 5 4 6 9 15 16 15 22 22 16 7 18 18 34 35 32 29 29 28 27 25 20 20 18 18 18 16 16 15 15 14 14 14 15 15 16 13 14 14 13 10 10 10 10 9 8 6
5 3 6 6 14 7 13 14 14 15 20 20 20 21 26 27 30 29 22 23 26 29 25 22 22 21 16 16 17 15 14 15 13 13 16 16 11 11 12 12 12 11 11 12 12 11 7 3 2
7 7 7 17 23 24 14 13 4 15 20 21 23 18 17 26 25 22 21 23 28 30 29 25 27 20 22 16 16 15 15 12 13 12 13 13 18 15 10 11 12 12 11 9 6 3 1 3 3
3 13 23 15 22 5 6 7 4 15 21 22 19 18 12 15 15 20 21 24 24 29 27 27 25 21 20 18 13 11 13 13 14 16 17 18 22 14 10 14 13 12 9 4 1 2 1 2 6
5 5 7 7 8 7 15 12 9 17 22 21 18 18 15 11 18 23 26 27 29 25 26 25 28 25 18 20 8 11 16 13 15 18 17 18 21 14 16 14 12 9 6 2 1 4 4 1 5
5 6 4 8 8 16 15 12 6 14 20 20 16 16 14 12 16 22 25 24 22 30 33 28 23 17 18 19 19 17 18 19 15 18 16 20 18 16 12 13 9 6 5 5 6 6 5 1 2
2 4 8 9 6 6 14 7 6 10 18 18 13 14 12 15 20 20 27 29 31 31 28 26 25 17 11 13 10 11 20 18 20 19 19 18 18 17 14 17 11 10 8 8 8 6 6 7 8
4 8 2 7 11 7 7 4 8 8 17 15 13 14 12 11 18 25 28 32 28 32 30 23 20 21 16 15 14 14 18 22 19 17 16 14 20 16 11 16 13 12 13 9 10 5 4 5 9
2 6 4 8 14 6 4 6 16 13 16 16 14 13 12 11 15 25 30 32 31 33 28 23 21 20 17 14 14 13 20 24 21 19 18 23 22 14 12 16 14 13 13 10 8 11 9 4 3
6 6 5 4 7 18 10 8 13 16 16 15 11 10 12 13 13 27 29 33 30 33 28 26 28 20 19 16 12 13 13 22 23 21 21 24 18 12 11 15 14 13 9 12 8 7 1 2 6
15 10 6 9 9 7 18 11 19 19 17 16 14 9 13 13 17 27 30 31 34 33 27 24 31 25 23 20 16 10 14 16 26 21 23 22 16 13 8 20 15 13 8 10 6 4 2 8 5
16 8 8 7 13 10 15 18 20 20 20 20 17 13 14 15 16 21 26 30 33 34 28 23 30 29 24 23 18 14 13 20 31 22 21 18 14 13 12 13 13 9 10 11 8 9 3 8 4
17 8 5 4 6 11 3 8 19 18 17 20 19 15 16 18 19 17 21 28 31 33 30 25 27 30 24 25 19 12 16 18 25 24 23 18 13 15 12 11 12 10 10 10 9 10 4 4 4
15 18 14 13 9 8 12 7 19 22 21 24 21 16 18 17 19 18 21 27 32 33 33 29 31 31 27 23 21 21 20 22 26 27 24 23 16 13 8 11 8 10 7 12 8 7 5 1 3
14 19 16 10 11 6 11 2 7 23 22 24 22 18 17 17 22 21 23 31 32 34 34 34 31 30 32 25 18 24 20 25 28 27 23 25 22 17 11 11 10 9 7 11 10 10 9 3 2
17 18 17 14 5 6 15 8 8 19 23 22 21 21 21 16 22 23 33 34 32 35 34 37 34 32 34 26 18 26 25 26 22 29 27 26 23 20 18 16 17 14 11 6 10 9 10 9 7
18 13 8 8 5 5 14 10 16 18 22 25 28 27 25 19 20 23 22 28 33 36 35 36 36 35 33 29 22 21 25 21 19 33 33 28 27 26 25 25 18 15 13 9 11 12 13 11 12
17 10 8 10 7 6 12 7 15 15 22 30 28 27 25 24 17 26 23 32 33 38 36 37 37 36 34 31 25 25 24 15 9 27 32 29 32 28 27 28 22 18 15 14 11 12 12 16 14
23 15 14 10 13 10 7 8 17 12 13 20 25 24 26 26 22 27 26 36 35 38 37 39 38 37 36 35 30 25 23 18 15 20 29 29 20 28 30 29 26 21 19 18 16 13 13 10 14
16 16 11 8 11 14 6 4 5 7 15 14 23 29 28 26 23 21 25 35 38 35 40 39 40 39 39 36 32 31 27 22 20 13 15 16 9 12 33 29 24 21 21 19 19 17 12 14 16
15 14 14 9 7 10 6 7 10 10 2 6 21 27 26 26 25 22 22 36 39 39 36 39 41 37 36 38 33 31 31 28 27 22 17 15 13 12 25 27 23 23 20 20 21 20 18 16 22
17 13 13 11 9 4 5 16 3 6 9 7 6 28 25 27 26 23 23 36 37 39 37 39 41 39 38 38 36 35 33 32 31 28 24 21 18 13 19 23 24 22 22 21 21 22 21 20 19